LUCH 5V

Last updated on Fri Dec 19 2025 00:02:37 GMT+0000 (Coordinated Universal Time)

1 39727U 14023A 25352.67193941 -.00000247 00000+0 00000+0 0 9997 2 39727 4.6836 71.4845 0004305 211.4196 141.1993 1.00267513 42540
UTC large
Height (km)
Speed (km/s)
/
Latitude / Longitude
Inclination (degrees)
Orbital Period (minutes)
Azimuth
Elevation
Range (km)
Doppler Factor

Next 0 passes for location: London (51.5072 / 0.1276)

Sorry there are no passes over London.